Location: Artiguedieu
(43.5000°N, 0.5454°E)
Time: 13:06:05
(UTC+00:00)

Cosmos 2082 Rocket - Pass Details

Date: 06 December 2020
Orbit: 831 x 855 km, 71.0° (Epoch: 27 January)

Event Time Altitude Azimuth Distance (km) Brightness Sun altitude
Exits shadow 05:01:45 10° 352° (N) 2,481 4.5 -23.6°
Maximum altitude 05:06:47 31° 54° (NE) 1,445 3.8 -22.7°
Drops below altitude 10° 05:11:50 10° 116° (ESE) 2,483 5.7 -21.8°
Sets 05:14:33 0° 127° (SE) 3,416 6.5 -21.4°
